Medford, WI

4:25 PM CST on December 07, 2019 (GMT -0600)
Taylor County

Weather History for KMDZ - November, 2019

Change the Weather History Date:

Thursday, November 21, 2019

  Actual Average Record
Temperature  
Mean Temperature 28 °F -  
Max Temperature 38 °F 35 °F 58 °F (1982)
Min Temperature 19 °F 20 °F -8 °F (2014)
Degree Days  
Heating Degree Days 36    
Moisture  
Dew Point 30 °F    
Average Humidity 91    
Maximum Humidity 100    
Minimum Humidity 79    
Precipitation  
Precipitation 0.50 in - - ()
Sea Level Pressure  
Sea Level Pressure 29.77 in    
Wind  
Wind Speed 9 mph ()    
Max Wind Speed 21 mph    
Max Gust Speed 26 mph    
Visibility 6.5 miles    
Events Rain , Snow    
Averages and records for this station are not official NWS values.
T = Trace of Precipitation, MM = Missing Value Source: Averaged Metar Reports

Daily Weather History Graph

Daily Weather History Graph

Search for Another Location

Airport or City:

Astronomy

Nov. 21, 2019 Rise Set
Actual Time 7:06 AM CST 4:26 PM CST
Civil Twilight 6:34 AM CST 4:59 PM CST
Nautical Twilight 5:58 AM CST 5:35 PM CST
Astronomical Twilight 5:23 AM CST 6:10 PM CST
Moon 12:42 AM CST (11/21) 2:14 PM CST (11/21)
Length of Visible Light 10h 24m
Length of Day
9h 19m
Waning Crescent, 29% of the Moon is Illuminated
Nov 21
Waning Crescent
Nov 26
New
Dec 4
First Quarter
Dec 11
Full
Dec 18
Last Quarter

Hourly Weather History & Observations

Time (CST) Temp. Windchill Dew Point Humidity Pressure Visibility Wind Dir Wind Speed Gust Speed Precip Events Conditions
12:15 AM 38.3 °F 33.2 °F 35.1 °F 88% 29.81 in 10.0 mi SE 6.9 mph - N/A   Overcast
12:35 AM 38.5 °F 32.7 °F 35.1 °F 87% 29.80 in 10.0 mi SSE 8.1 mph - N/A   Overcast
12:55 AM 38.7 °F 33.6 °F 35.6 °F 89% 29.79 in 10.0 mi SSE 6.9 mph - N/A   Overcast
1:35 AM 37.8 °F 31.8 °F 36.7 °F 96% 29.76 in 3.0 mi SE 8.1 mph - N/A Rain Rain
1:55 AM 37.8 °F 33.3 °F 37.2 °F 98% 29.76 in 2.0 mi SSE 5.8 mph - 0.04 in Rain Rain
2:15 AM 37.8 °F 31.8 °F 37.4 °F 99% 29.74 in 2.5 mi SE 8.1 mph - 0.02 in Rain Rain
2:35 AM 37.8 °F 33.3 °F 37.4 °F 99% 29.73 in 2.0 mi SE 5.8 mph - 0.05 in Rain Rain
2:55 AM 37.8 °F 33.3 °F 37.4 °F 99% 29.72 in 1.8 mi SE 5.8 mph - 0.09 in Rain Rain
3:15 AM 37.8 °F 34.2 °F 37.4 °F 99% 29.70 in 2.0 mi SE 4.6 mph - 0.02 in Rain Rain
3:35 AM 37.6 °F 35.1 °F 37.4 °F 99% 29.68 in 1.8 mi SE 3.5 mph - 0.05 in Rain Rain
3:55 AM 37.4 °F 33.8 °F 37.2 °F 99% 29.67 in 2.0 mi ESE 4.6 mph - 0.08 in Rain Rain
4:15 AM 37.6 °F 35.1 °F 37.4 °F 99% 29.66 in 1.8 mi East 3.5 mph - 0.03 in Rain Rain
4:35 AM 37.6 °F 34.0 °F 37.4 °F 99% 29.65 in 2.0 mi ESE 4.6 mph - 0.07 in Rain Rain
4:55 AM 37.6 °F 34.0 °F 37.4 °F 99% 29.64 in 2.0 mi ESE 4.6 mph - 0.10 in Rain Rain
5:15 AM 37.4 °F 33.8 °F 37.4 °F 100% 29.63 in 3.0 mi East 4.6 mph - N/A Rain Rain
5:35 AM 37.4 °F 33.8 °F 37.2 °F 99% 29.61 in 2.5 mi East 4.6 mph - 0.02 in Rain Rain
5:55 AM 37.4 °F 34.9 °F 37.4 °F 100% 29.61 in 4.0 mi East 3.5 mph - 0.02 in   Drizzle
6:15 AM 37.6 °F 35.1 °F 37.4 °F 99% 29.60 in 1.5 mi East 3.5 mph - 0.01 in Rain Light Rain
6:35 AM 36.9 °F 33.1 °F 36.7 °F 99% 29.59 in 1.2 mi East 4.6 mph - 0.01 in   Drizzle
6:55 AM 37.2 °F 33.6 °F 37.0 °F 99% 29.58 in 1.2 mi East 4.6 mph - 0.02 in   Drizzle
7:15 AM 36.9 °F 32.2 °F 36.9 °F 100% 29.57 in 1.0 mi ENE 5.8 mph - 0.01 in Rain Rain
7:35 AM 37.0 °F 34.5 °F 37.0 °F 100% 29.58 in 1.2 mi ENE 3.5 mph - 0.02 in Rain Light Rain
7:55 AM 37.4 °F - 37.4 °F 100% 29.58 in 1.5 mi Calm Calm - 0.03 in   Drizzle
8:15 AM 37.4 °F 34.9 °F 37.4 °F 100% 29.57 in 1.5 mi NNE 3.5 mph - 0.01 in Rain Rain
8:35 AM 37.4 °F 34.9 °F 37.4 °F 100% 29.58 in 1.8 mi North 3.5 mph - 0.04 in Rain Rain
8:55 AM 37.8 °F 30.7 °F 37.8 °F 100% 29.59 in 3.0 mi NNW 10.4 mph - 0.09 in Rain Rain
9:15 AM 37.4 °F 29.3 °F 37.4 °F 100% 29.60 in 10.0 mi North 12.7 mph 17.3 mph 0.02 in Rain Rain
9:55 AM 36.5 °F 28.2 °F 35.4 °F 96% 29.62 in 10.0 mi NNW 12.7 mph 17.3 mph 0.02 in Rain Rain
10:15 AM 34.2 °F 25.7 °F 32.9 °F 95% 29.63 in 5.0 mi North 11.5 mph 21.9 mph 0.01 in Rain Rain
10:35 AM 33.3 °F 23.2 °F 32.0 °F 95% 29.63 in 7.0 mi North 15.0 mph 23.0 mph 0.01 in Rain Light Rain
10:55 AM 33.4 °F 24.3 °F 32.4 °F 96% 29.63 in 10.0 mi North 12.7 mph - 0.01 in Rain Light Rain
11:15 AM 33.3 °F 24.1 °F 32.2 °F 96% 29.64 in 10.0 mi NNW 12.7 mph 18.4 mph N/A Rain Light Rain
11:35 AM 33.3 °F 22.8 °F 32.0 °F 95% 29.65 in 10.0 mi NNW 16.1 mph 21.9 mph N/A Rain Light Rain
11:55 AM 33.3 °F 22.8 °F 31.8 °F 94% 29.66 in 10.0 mi North 16.1 mph 23.0 mph N/A   Overcast
12:15 PM 33.4 °F 22.7 °F 31.5 °F 92% 29.66 in 10.0 mi NNW 17.3 mph 25.3 mph N/A   Overcast
12:55 PM 33.6 °F 22.6 °F 31.6 °F 92% 29.69 in 7.0 mi NW 18.4 mph 24.2 mph N/A Snow Light Snow
1:15 PM 32.7 °F 21.4 °F 30.0 °F 90% 29.70 in 7.0 mi NNW 18.4 mph 25.3 mph N/A   Overcast
1:35 PM 32.0 °F 20.1 °F 29.1 °F 89% 29.71 in 5.0 mi NNW 19.6 mph 26.5 mph N/A   Overcast
1:55 PM 32.4 °F 21.7 °F 29.5 °F 89% 29.73 in 10.0 mi NNW 16.1 mph 21.9 mph N/A   Overcast
2:15 PM 32.4 °F 22.1 °F 27.7 °F 83% 29.74 in 10.0 mi NW 15.0 mph 25.3 mph N/A   Overcast
2:35 PM 32.0 °F 22.1 °F 27.7 °F 84% 29.76 in 10.0 mi NNW 13.8 mph 25.3 mph N/A   Overcast
2:55 PM 31.6 °F 20.7 °F 26.8 °F 82% 29.77 in 10.0 mi NNW 16.1 mph 25.3 mph N/A   Overcast
3:15 PM 31.1 °F 18.6 °F 26.4 °F 83% 29.79 in 10.0 mi NW 20.7 mph 26.5 mph N/A   Overcast
3:35 PM 30.7 °F 20.0 °F 26.4 °F 84% 29.81 in 7.0 mi NW 15.0 mph 24.2 mph N/A   Overcast
3:55 PM 30.2 °F 20.8 °F 25.7 °F 83% 29.84 in 10.0 mi NW 11.5 mph 19.6 mph N/A   Overcast
4:15 PM 29.5 °F 18.8 °F 26.4 °F 88% 29.86 in 2.0 mi NW 13.8 mph 23.0 mph N/A Snow Light Snow
4:35 PM 29.5 °F 20.4 °F 26.2 °F 88% 29.87 in 3.0 mi NNW 10.4 mph - N/A Snow Light Snow
4:55 PM 29.3 °F 18.6 °F 26.1 °F 88% 29.87 in 7.0 mi NW 13.8 mph 18.4 mph N/A   Overcast
5:15 PM 28.9 °F 18.6 °F 26.6 °F 91% 29.89 in 1.8 mi NW 12.7 mph 19.6 mph N/A Snow Light Snow
5:35 PM 29.1 °F 20.0 °F 25.7 °F 87% 29.90 in 7.0 mi NW 10.4 mph 17.3 mph N/A   Overcast
5:55 PM 28.8 °F 18.4 °F 25.3 °F 87% 29.91 in 10.0 mi WNW 12.7 mph 18.4 mph N/A   Overcast
6:15 PM 28.4 °F 17.5 °F 25.3 °F 88% 29.91 in 10.0 mi NW 13.8 mph - N/A   Overcast
6:35 PM 27.7 °F 15.6 °F 22.1 °F 80% 29.92 in 10.0 mi NW 16.1 mph 25.3 mph N/A   Overcast
6:55 PM 26.4 °F 13.6 °F 20.8 °F 79% 29.93 in 10.0 mi NW 17.3 mph 26.5 mph N/A   Overcast
7:15 PM 25.7 °F 13.5 °F 20.5 °F 81% 29.94 in 10.0 mi NNW 15.0 mph 18.4 mph N/A   Overcast
7:35 PM 25.7 °F 14.6 °F 21.2 °F 83% 29.95 in 10.0 mi NNW 12.7 mph 19.6 mph N/A   Overcast
7:55 PM 25.5 °F 15.5 °F 21.2 °F 84% 29.95 in 10.0 mi NNW 10.4 mph 21.9 mph N/A   Overcast
8:15 PM 25.2 °F 13.3 °F 20.8 °F 84% 29.96 in 10.0 mi NW 13.8 mph - N/A   Overcast
8:35 PM 24.3 °F 12.7 °F 20.5 °F 85% 29.98 in 10.0 mi NNW 12.7 mph 23.0 mph N/A   Overcast
8:55 PM 23.0 °F 9.6 °F 19.0 °F 85% 30.00 in 10.0 mi NW 16.1 mph 24.2 mph N/A   Overcast
9:35 PM 21.9 °F 8.7 °F 18.3 °F 86% 30.02 in 10.0 mi NW 15.0 mph 18.4 mph N/A   Overcast
9:55 PM 21.0 °F 7.6 °F 16.9 °F 84% 30.03 in 10.0 mi NNW 15.0 mph 18.4 mph N/A   Overcast
10:15 PM 20.3 °F 6.1 °F 15.6 °F 82% 30.03 in 10.0 mi NW 16.1 mph 23.0 mph N/A   Overcast
10:35 PM 19.9 °F 6.7 °F 15.6 °F 83% 30.04 in 10.0 mi NW 13.8 mph - N/A   Overcast
10:55 PM 20.1 °F 7.5 °F 15.8 °F 83% 30.05 in 10.0 mi NNW 12.7 mph 20.7 mph N/A   Overcast
11:15 PM 20.3 °F 7.2 °F 15.6 °F 82% 30.06 in 10.0 mi NW 13.8 mph 19.6 mph N/A   Overcast
11:35 PM 20.3 °F 7.7 °F 15.8 °F 83% 30.06 in 10.0 mi NW 12.7 mph - N/A   Overcast
11:55 PM 20.8 °F 7.3 °F 16.2 °F 82% 30.06 in 10.0 mi NNW 15.0 mph 18.4 mph N/A   Overcast